SHIJIAN-17 (SJ-17) (41838 NORAD) Tracking and Keplerian Element Data

This shows tracking and keplerian element data for the satellite.

Feedback or suggestion? Click here.




ElementValue
Catalog41838
NameSHIJIAN-17 (SJ-17)
Epoch Orbit1783
Epoch Day261.93693884
Epoch Year2021
RAAN92.1778
Inclination1.3476
Eccentricity0.0001549
Argument of Perigee56.3084
Mean Anonmoly304.4353
Mean Motion1.00272969
Decay Rate-3.86E-06
L11 41838U 16065A 21261.93693884 -.00000386 00000-0 00000-0 0 9992
L22 41838 1.3476 92.1778 0001549 56.3084 304.4353 1.00272969 17833

Live tracking and technical data element details for SHIJIAN-17 (SJ-17) (NORAD 41838). SHIJIAN-17 (SJ-17) can be tracked NOW for your location showing map with azimuth and elevation plus other details from your city location.

Track the satellite on the map from your city or location and see movement details for azimuth, elevation, latitude, longitude, range, height, and movement on the map or in text.







IsCatalogInMostPopularTable: catalog: 41838, numindb: 616
Update: records affected: 1



GetName: 41838 SHIJIAN-17 (SJ-17)

Hit Count: updated at: Sun, 26 Sep 2021 01:03:36 GMT